Regional Weather Roundup
Issued by NWS Huntsville, AL

Home | Current Version | Previous Version | Text Only | Print | Product List | Glossary On
Versions: 1 2 3 4 5 6 7 8 9 10 11 12 13 14 15 16 17 18 19 20 21 22 23 24 25 26 27 28 29 30 31 32 33 34 35 36 37 38 39 40 41 42 43 44 45 46 47 48 49 50
000
ASUS44 KHUN 312210
RWRHUN

WEATHER ROUNDUP FOR THE TENNESSEE VALLEY
NATIONAL WEATHER SERVICE HUNTSVILLE AL
500 PM CDT TUE MAY 31 2016

ALZ001>004-312300-
NORTHWEST ALABAMA

CITY           SKY/WX    TMP DP  RH WIND       PRES   REMARKS
COURTLAND HCN    N/A     84 N/A N/A W7          N/A
RUSSELLVILLE     N/A     82 N/A N/A MISG        N/A
SHOALS AIRPORT CLOUDY    86  60  41 S6        29.91F
SHOALS TVA RES   N/A     86 N/A N/A MISG        N/A
$$

ALZ005>007-016-312300-
NORTH CENTRAL ALABAMA

CITY           SKY/WX    TMP DP  RH WIND       PRES   REMARKS
CULLMAN AG STN   N/A     88 N/A N/A N6          N/A
DECATUR AP     CLOUDY    84  64  50 W9        29.91S
HUNTSVILLE AP  PTSUNNY   88  64  44 W7        29.90S
HUN NWS/UAH      N/A     90  56  31 W8          N/A
MERIDIANVILLE  CLOUDY    90  45  20 NW6       29.89F
REDSTONE ARSN  PTSUNNY   88  65  46 NW10      29.89S HX  90
VINEMONT AP    FAIR      87  65  48 W3        29.94F
$$

ALZ008>010-312300-
NORTHEAST ALABAMA

CITY           SKY/WX    TMP DP  RH WIND       PRES   REMARKS
FORT PAYNE     SUNNY     88  54  31 CALM      29.90S
SCOTTSBORO AP  PTSUNNY   88  61  40 CALM      29.89S
SCOTTSBORO HCN   N/A     84 N/A N/A MISG        N/A
VALLEY HEAD      N/A     86 N/A N/A MISG        N/A
$$

TNZ076-096-097-312300-
SOUTHEASTERN MIDDLE TENNESSEE

CITY           SKY/WX    TMP DP  RH WIND       PRES   REMARKS
TULLAHOMA      SUNNY     86  55  35 N5        29.93S
WINCHESTER     SUNNY     90  57  33 VRB5      29.91F
$$

...SURROUNDING SITES...

CITY           SKY/WX    TMP DP  RH WIND       PRES   REMARKS
ATLANTA        MOSUNNY   90  60  36 VRB5      29.90F
ANNISTON       SUNNY     89  56  32 W5        29.89S
BIRMINGHAM     CLOUDY    76  66  71 W9        29.96R
CHATTANOOGA    MOSUNNY   93  55  27 N7        29.89F HX  91
DALTON         SUNNY     90  55  31 SE5       29.89F
GADSDEN        PTSUNNY   84  64  50 SW17G24   29.91R
GOLDEN TRNGL   MOSUNNY   79  64  61 S9        29.89F
HALEYVILLE     FAIR      82  63  52 CALM      29.95S
JACKSON TN     MOSUNNY   83  66  56 S6        29.89F
MEMPHIS        MOSUNNY   86  67  52 SW8       29.87F
NASHVILLE      PTSUNNY   88  58  36 CALM      29.90F
OXFORD MS      FAIR      82  66  57 S3        29.90S
ROME           SUNNY     90  60  36 VRB6      29.89S
SAVANNAH       SUNNY     84  64  51 SW3       29.89S
TUPELO         NOT AVBL
TUSCALOOSA     CLOUDY    76  65  68 NE7       29.90F
$$

...GULF COAST WEATHER...

CITY           SKY/WX    TMP DP  RH WIND       PRES   REMARKS
GULFPORT       SUNNY     86  69  56 S9        29.88F HX  90
PASCAGOULA     SUNNY     86  70  58 SW8       29.89S HX  90
MOBILE         MOSUNNY   85  72  65 S14       29.90S HX  91
GULF SHORES    PTCLDY    84  73  69 SW6       29.91S HX  90
PENSACOLA      PTSUNNY   84  73  70 SW9       29.91S HX  91
DESTIN         CLOUDY    84  75  74 VRB6      29.91F HX  92
PANAMA CITY    CLOUDY    82  75  79 SW10      29.91F
APPALACHICOLA  SUNNY     84  75  74 W13       29.90F HX  92
$$




USA.gov is the U.S. government's official web portal to all federal, state and local government web resources and services.